Theta_e
310 313 314 315 314 316 314 312 312 311 308 306 304 303 303 306 308 311 313 314 314 315 318 324 324 321 323 326 330 328 326 329 330 328 329 328 326 325 327 328 328 327 327 328 331
306 308 311 313 314 315 316 314 312 312 311 309 307 305 302 302 303 304 305 309 313 314 315 318 323 323 321 326 330 327 325 327 326 325 327 328 327 325 325 326 327 328 328 328 330
308 308 310 309 310 313 314 316 314 312 312 310 309 308 306 304 303 301 302 303 305 312 314 315 319 324 325 324 330 327 326 325 328 327 328 328 325 326 325 324 326 326 326 328 331
309 310 309 310 309 308 310 313 316 313 312 311 311 310 309 308 300 310 307 303 303 305 315 316 322 326 324 322 326 328 328 327 328 328 327 327 328 328 326 326 326 326 328 327 328
308 309 310 310 310 309 308 310 314 315 313 311 311 311 310 309 307 310 314 312 303 309 314 317 322 326 322 322 323 325 326 328 328 327 327 327 327 327 328 328 329 329 328 327 327
306 307 309 310 310 310 309 307 310 315 313 312 311 311 310 309 306 307 312 314 308 307 315 318 318 325 325 322 321 321 324 326 325 326 326 326 326 327 328 328 328 328 328 328 329
304 306 307 310 309 310 309 308 307 312 315 313 311 312 311 310 306 305 306 308 313 305 313 316 320 325 324 324 324 323 322 320 320 322 322 324 324 324 325 327 327 327 325 326 326
302 304 306 307 309 309 309 308 307 309 315 313 311 313 311 310 310 306 307 312 316 313 309 308 318 323 323 323 322 322 321 323 320 320 322 322 321 318 323 326 327 325 323 323 322
300 301 303 306 309 309 309 308 307 308 314 314 311 312 312 311 310 308 313 316 316 318 319 318 318 321 322 319 321 319 320 321 320 320 320 319 320 318 321 321 322 322 322 321 321
300 301 302 302 306 308 308 308 308 309 313 314 311 312 311 310 310 308 315 315 316 320 321 320 320 318 318 321 316 319 320 318 319 318 318 319 319 316 320 320 320 320 321 321 321
299 299 300 301 303 306 307 308 308 310 313 314 312 312 309 311 311 310 310 314 317 317 318 320 318 318 318 320 315 316 318 319 317 317 318 318 318 317 317 317 317 319 319 320 320
298 298 301 301 302 304 307 308 308 310 312 313 311 311 311 310 309 309 309 314 316 317 316 318 318 314 313 317 319 317 317 316 316 316 316 315 316 315 315 315 316 316 317 318 319
298 300 300 301 303 303 307 307 307 310 311 311 312 311 311 310 309 309 309 313 314 315 316 313 312 314 314 316 320 320 320 316 317 317 315 316 318 316 314 316 318 318 319 319 320
298 300 300 301 302 304 305 307 306 307 310 309 312 311 311 309 309 309 308 313 314 314 314 314 313 314 315 315 317 318 318 315 317 318 317 316 316 315 314 314 314 317 318 319 320
298 299 301 300 302 303 306 307 305 307 310 310 311 311 311 308 308 308 308 312 313 312 313 314 313 314 316 316 316 315 316 317 316 316 318 317 318 316 315 315 314 315 317 318 318
297 298 300 301 301 303 304 305 306 308 309 310 310 311 311 308 308 307 308 312 312 312 312 311 312 313 314 314 316 314 315 316 315 316 318 315 317 316 316 314 314 316 318 318 317
297 298 300 300 301 302 304 306 308 309 306 308 309 310 311 308 309 308 308 311 312 312 313 312 312 311 315 315 314 317 318 320 321 319 319 313 318 317 312 311 312 313 317 315 316
298 298 299 299 300 303 306 305 307 307 307 305 310 310 311 310 310 309 308 310 310 307 308 310 311 312 311 315 316 317 317 317 314 317 316 313 319 317 313 315 315 316 315 316 316
297 298 299 299 300 301 303 307 306 305 306 308 310 311 311 311 310 309 309 309 309 307 307 310 310 310 311 312 314 316 319 313 313 305 311 313 314 313 312 312 314 314 315 314 313
298 298 298 299 299 298 299 305 303 304 305 308 310 311 310 311 311 309 309 308 308 308 306 307 309 308 311 313 312 314 313 317 317 317 315 314 315 314 313 313 310 309 311 312 309
298 298 297 298 298 298 300 299 299 301 302 307 308 310 310 310 309 309 308 306 307 308 307 305 306 308 308 312 314 315 314 313 312 314 312 311 313 309 311 311 309 308 311 309 308
297 298 298 297 299 299 299 298 301 302 303 302 307 308 309 310 310 310 308 307 307 308 309 306 305 308 310 307 310 312 313 313 314 313 312 312 311 309 309 309 308 310 308 308 307
296 297 298 298 297 299 295 299 300 302 302 305 306 308 306 310 310 309 306 306 307 307 309 308 306 303 309 310 309 312 312 312 311 308 312 315 312 307 306 305 308 308 307 307 306
297 297 297 299 297 296 294 295 299 301 302 301 302 306 308 309 306 309 307 306 307 308 309 309 305 309 308 308 310 312 312 312 313 314 312 313 312 309 307 305 305 306 307 306 304
297 297 296 297 298 295 295 296 300 301 300 300 305 307 307 309 307 306 306 306 307 307 309 309 309 303 305 306 309 310 311 311 314 314 313 312 311 309 307 306 307 308 306 302 301
297 297 297 296 298 295 297 299 300 300 302 302 303 307 308 308 308 306 305 307 307 306 308 307 309 305 303 305 305 303 310 310 312 313 312 310 309 308 308 307 300 298 299 297 296
297 297 298 299 298 297 298 299 301 301 302 301 302 306 308 307 306 307 307 307 306 307 308 309 306 308 310 305 305 303 305 307 309 307 311 312 312 306 302 297 294 293 293 292 292
Wind_Speed
32 31 27 25 25 25 22 20 18 17 17 18 20 23 24 25 26 27 28 25 20 19 17 12 8 6 4 3 3 1 4 2 5 6 3 1 2 2 3 4 5 5 4 4 9
30 31 32 31 28 24 25 23 21 18 16 16 16 17 19 21 24 32 33 28 23 18 17 15 13 5 3 2 2 1 3 8 4 4 3 0 2 4 3 3 4 3 4 4 10
31 31 31 33 33 31 27 24 24 21 18 15 15 14 13 15 18 32 28 27 26 22 20 15 13 10 4 4 4 3 4 4 2 4 2 2 3 4 7 4 7 8 1 3 11
33 32 33 33 32 32 32 29 26 24 20 17 14 12 10 9 7 2 2 13 24 24 22 17 10 7 5 5 6 2 7 4 2 3 1 2 2 3 8 5 9 5 6 8 10
32 33 32 34 31 32 32 32 27 26 23 19 16 12 12 13 20 1 3 6 21 28 25 21 14 10 6 6 7 4 4 7 10 6 5 6 6 7 12 13 8 10 8 10 13
33 35 33 33 33 31 29 30 31 26 26 22 19 16 19 15 18 18 4 2 10 29 25 22 10 16 6 6 8 2 11 12 7 8 7 5 7 8 9 16 18 14 13 13 16
37 34 35 32 33 32 31 28 29 29 27 24 21 22 26 26 10 17 25 11 7 20 26 24 13 15 3 2 6 10 5 7 3 5 7 5 7 11 22 15 18 20 20 20 19
33 34 34 34 33 33 31 30 29 32 27 26 22 25 19 17 25 18 17 14 12 10 16 21 22 8 4 2 2 4 3 3 3 10 5 10 19 9 19 21 23 24 20 17 18
34 36 33 32 31 31 29 28 27 30 27 27 24 26 11 13 28 27 20 16 15 15 15 15 20 9 6 4 1 4 3 9 7 12 5 8 8 4 12 18 21 22 28 28 24
34 35 34 38 33 32 29 25 23 26 27 29 28 17 17 16 22 21 26 18 18 16 11 12 11 4 5 8 10 6 5 6 7 3 7 7 12 9 19 16 22 24 24 27 26
32 34 33 36 37 31 31 24 18 20 36 22 16 11 5 21 15 22 28 27 20 20 9 13 12 21 22 15 8 7 5 9 2 4 1 7 14 15 22 22 25 33 31 31 34
33 34 34 34 35 38 34 39 34 14 18 40 24 39 8 24 15 24 33 25 18 14 9 8 24 8 8 7 6 6 6 8 3 4 3 8 17 17 19 20 28 29 33 31 31
33 31 33 32 33 39 43 41 37 26 5 36 33 37 32 24 15 34 40 29 22 18 19 14 6 17 14 11 15 15 19 4 3 1 3 5 15 14 10 19 25 25 25 25 25
33 30 29 32 29 38 47 44 41 31 8 6 22 15 35 16 7 20 39 31 12 26 22 14 13 13 12 17 16 19 8 7 6 4 6 4 9 5 4 7 7 16 20 20 27
31 29 29 31 23 41 41 43 39 23 14 11 12 14 36 24 21 19 38 31 15 9 11 11 9 8 15 17 13 11 10 13 6 5 3 10 4 5 1 6 7 10 16 20 25
30 31 31 28 32 22 34 44 39 10 15 10 14 14 20 21 10 18 30 26 11 4 8 6 1 9 9 7 16 7 5 4 4 5 13 27 9 14 10 6 6 13 21 20 14
27 30 29 26 22 39 37 47 12 15 9 9 9 18 25 10 14 14 20 20 14 8 11 5 14 3 5 7 5 10 11 5 8 10 17 7 9 21 7 7 7 10 19 9 5
22 24 25 23 27 30 42 15 16 17 8 2 11 25 30 21 11 17 24 21 16 9 7 13 7 18 5 9 8 22 18 6 6 5 8 5 10 11 9 18 23 27 19 13 4
18 20 24 27 19 32 24 15 13 5 9 10 12 21 18 18 9 15 21 27 27 21 11 14 14 5 6 5 14 12 16 10 4 1 2 4 6 9 9 9 6 5 10 13 17
17 18 25 23 25 17 5 16 2 2 8 8 16 13 17 23 19 18 20 24 19 25 6 6 5 6 14 3 9 11 7 13 7 6 5 4 3 7 3 4 6 8 16 16 14
17 8 10 24 21 11 2 5 3 12 4 14 17 15 15 12 14 19 26 14 24 26 10 6 4 2 10 12 16 9 9 4 2 5 5 2 6 7 8 8 11 12 17 15 13
14 3 9 20 6 1 3 5 2 2 5 10 20 4 18 24 19 21 19 17 37 28 22 8 5 3 14 3 8 16 18 18 7 8 4 1 5 2 5 7 15 17 14 11 10
11 6 13 27 4 6 2 2 3 5 9 5 8 10 6 19 13 15 10 17 35 23 23 12 4 3 3 3 2 8 8 16 4 3 6 8 7 3 12 10 19 17 10 9 9
10 4 6 16 16 8 6 6 6 9 6 6 9 8 9 18 4 14 6 13 29 24 27 22 4 16 14 8 7 13 16 12 16 11 11 12 16 3 4 7 12 9 7 7 12
16 3 8 5 10 11 6 9 14 7 5 4 7 17 10 7 5 7 5 5 14 27 19 14 18 3 1 1 5 11 19 18 15 23 13 22 14 9 8 7 13 6 6 12 16
11 6 3 3 15 14 15 16 16 11 5 6 15 18 21 18 12 11 9 12 12 15 20 8 9 6 1 2 6 1 12 16 21 20 15 7 7 5 6 11 13 15 16 16 12
16 17 6 6 8 15 15 18 16 11 9 12 12 20 16 16 21 29 25 24 13 17 22 15 7 9 17 3 5 6 12 10 7 5 13 18 10 6 4 9 9 11 12 11 10
Wind_Direction
247 247 248 246 247 248 251 254 258 261 263 262 254 252 254 256 257 256 252 252 254 254 256 262 269 282 304 306 306 339 73 198 217 164 213 344 102 144 189 171 171 198 275 288 195
248 246 247 248 247 247 248 249 251 255 258 262 264 255 253 256 261 257 250 248 244 246 252 252 243 260 261 267 250 124 138 208 228 193 187 302 201 174 154 161 215 210 269 280 198
251 246 246 248 249 249 249 249 247 249 251 255 260 265 258 254 268 270 267 252 244 239 239 244 242 230 224 233 202 176 205 215 233 196 180 227 214 211 175 210 203 171 209 234 206
251 248 245 244 246 249 248 248 247 243 244 245 243 255 250 226 225 273 292 229 225 228 227 224 221 187 191 201 203 203 236 210 238 196 249 213 234 215 215 223 200 226 242 218 217
249 248 246 244 243 244 246 245 246 241 240 237 232 234 220 216 223 236 180 231 210 207 215 211 206 196 182 196 210 218 224 228 224 248 274 271 244 259 251 232 227 266 259 237 231
251 248 245 244 241 240 241 242 240 240 235 232 228 223 221 229 243 225 196 196 228 200 205 207 215 210 229 205 180 234 235 241 248 239 246 229 259 219 253 246 248 250 255 252 242
251 251 244 243 239 237 235 237 239 237 232 226 223 220 229 231 231 226 228 226 232 215 202 205 204 198 224 318 269 253 302 308 218 229 228 238 274 239 248 242 255 257 260 260 256
250 248 246 241 238 236 233 233 236 232 232 223 219 221 235 251 241 240 219 207 193 204 220 213 208 205 183 274 353 177 169 240 215 179 224 167 257 260 256 250 253 263 265 258 259
248 249 246 241 237 232 229 228 232 230 228 217 211 214 241 229 233 220 195 187 183 195 210 219 211 213 180 116 12 237 187 231 294 208 185 188 267 245 253 248 251 258 272 276 275
246 244 243 244 239 229 225 223 227 226 221 216 210 203 225 202 220 206 185 178 184 167 171 178 185 191 190 183 211 204 178 222 210 234 194 234 257 271 268 273 274 273 268 273 276
247 240 244 238 238 230 224 213 210 220 215 202 197 185 349 202 201 200 187 186 181 188 179 180 191 212 201 206 196 173 192 211 204 229 265 238 258 264 269 270 268 271 274 271 272
245 240 237 234 229 232 222 214 206 202 209 216 218 203 215 175 175 199 186 184 194 199 134 183 220 187 174 182 200 190 211 222 290 241 227 280 268 271 266 259 260 264 272 277 278
242 235 232 227 224 223 220 219 211 210 243 211 208 200 200 178 186 197 187 182 193 197 196 202 226 168 178 188 205 221 223 148 187 149 257 342 285 256 252 250 256 259 263 268 270
238 233 235 224 228 221 220 218 211 215 227 208 198 214 191 194 218 193 193 178 179 205 196 225 232 197 189 207 195 221 176 162 182 149 242 143 276 241 240 261 240 256 256 256 266
233 228 225 222 222 213 219 205 203 198 226 183 178 194 185 171 146 195 189 187 184 179 182 207 162 176 196 209 173 225 167 199 186 218 8 258 257 291 265 267 273 267 266 265 264
227 226 222 220 223 217 207 190 190 213 215 171 160 164 168 179 186 150 176 193 187 180 224 206 265 174 200 180 184 134 89 109 145 182 236 240 207 263 235 225 237 239 259 265 290
228 229 214 220 232 215 192 174 196 218 160 157 166 172 181 167 174 154 171 190 185 174 210 211 241 276 178 140 151 190 163 195 210 215 234 166 196 247 241 240 218 227 256 270 336
218 218 227 234 224 185 189 190 216 193 184 228 166 178 187 170 178 171 168 190 205 195 183 196 220 211 190 202 187 202 205 186 204 208 224 154 208 241 228 248 248 255 258 263 168
210 214 216 224 203 197 210 210 199 129 147 150 172 178 188 183 136 170 177 190 194 192 180 191 224 184 175 147 173 194 219 197 125 75 82 199 281 309 246 252 242 239 193 161 124
201 206 220 219 210 202 230 208 324 223 165 192 193 186 177 178 170 174 179 194 192 199 184 203 197 210 186 151 211 182 147 210 219 182 209 245 257 228 255 231 130 113 122 119 103
194 180 226 217 210 212 196 201 180 237 146 213 206 194 202 177 178 185 183 184 192 187 169 155 134 246 151 202 196 190 212 211 185 156 190 208 251 220 204 173 160 149 132 118 102
178 201 193 190 198 130 130 167 244 292 153 242 204 183 181 184 193 190 195 198 189 173 188 183 142 160 206 272 183 209 211 208 209 213 226 137 265 325 215 152 143 145 130 110 88
187 186 181 181 198 192 173 167 208 192 248 209 214 165 242 177 185 190 195 190 182 173 177 173 193 91 27 357 275 204 208 209 174 83 197 212 247 32 121 132 151 145 130 100 72
170 180 195 201 221 181 148 200 203 209 231 269 314 144 185 175 80 182 143 176 180 186 190 169 149 202 207 220 144 206 205 199 204 216 217 211 235 100 118 132 159 151 134 76 80
196 229 187 178 202 208 180 185 199 197 211 180 273 212 159 155 117 158 127 108 177 195 188 184 211 147 245 105 199 203 212 206 203 219 203 228 227 193 189 170 182 176 79 89 80
170 176 205 141 179 194 209 219 196 197 156 205 232 248 178 183 193 177 135 167 169 193 190 161 211 161 189 74 78 111 209 205 213 224 230 268 253 180 194 166 95 89 96 85 74
193 197 188 185 177 187 200 217 210 178 203 242 217 223 179 187 184 177 170 173 163 175 186 183 158 177 220 139 79 292 210 196 196 187 206 231 233 164 115 101 78 84 82 68 39